星链-1015 (STARLINK-1015 )

导读

STARLINK-1015是美国SpaceX星链互联网卫星,于2019年11月11日发射升空,属于星链低轨星座项目的早期组网卫星。星链计划旨在构建覆盖全球的卫星互联网,该星加入近地轨道通信卫星网络后,为全球偏远地区、海洋空域提供高速低延迟网络接入服务,支撑全球无缝互联通信目标落地。

Basic Information
目录编号:
44721
目录名称:
STARLINK-1015
国际标识:
2019-074J
轨道中心:
EARTH
卫星名称:
星链-1015
卫星全名:
星链-1015 (STARLINK-1015 )
卫星状态:
已陨落 最后检测时间 2025-10-04
发射日期:
2019-11-11 UTC
国别 :
美国 (US)
星等 :
--
Orbit Information
数据来源 国际轨道数据
星历时间: 2025-10-04T05:39:26+0800
轨道信息已过期252天
半长轴: 6542.018km
偏心率: 0.0004115
轨道倾角: 53.028°
近地点辐角 267.352°
升交点赤经 97.189°
平近点角 92.705°
近地点: 161.19km
远地点: 166.576km
周期: 87.766分钟
每日圈数: 16.407229
Detailed Information
固有亮度:
5
最大亮度:
2.5
卫星平台:
Starlink V1.0
覆盖范围:
全球
运营商:
太空探索技术公司
运营商所在国:
美国
制造商(研发单位):
太空探索技术公司
制造商所在国:
美国
使用方式:
暂无
Satellite Introduction
星链(Starlink)计划是由太空探索技术公司(SpaceX)提出的一个巨型低轨卫星互联网星座项目,计划在2019年至2024年间在太空搭建由约1.2万颗卫星组成的“星链”网络,其中1584颗将部署在地球上空550千米处的近地轨道,并从2020年开始工作。该卫星仍在工作。